Time,TemperatureF,DewpointF,PressureIn,WindDirection,WindDirectionDegrees,WindSpeedMPH,WindSpeedGustMPH,Humidity,HourlyPrecipIn,Conditions,Clouds,dailyrainin,SoftwareType,DateUTC
2013-03-29 00:12:00,29.4,26.0,30.38,ENE,68,1.0,2.0,85,0.00,,,0.00,weatherlink.com 1.10,2013-03-29 04:12:00,
2013-03-29 00:27:00,30.3,26.0,30.38,NE,44,0.0,1.0,84,0.00,,,0.00,weatherlink.com 1.10,2013-03-29 04:27:00,
2013-03-29 00:42:00,29.2,25.0,30.39,NE,44,0.0,0.0,83,0.00,,,0.00,weatherlink.com 1.10,2013-03-29 04:42:00,
2013-03-29 00:57:00,28.9,25.0,30.39,NE,37,0.0,1.0,85,0.00,,,0.00,weatherlink.com 1.10,2013-03-29 04:57:00,
2013-03-29 01:27:00,28.1,25.0,30.39,NE,51,0.0,1.0,86,0.00,,,0.00,weatherlink.com 1.10,2013-03-29 05:27:00,
2013-03-29 01:42:00,28.0,25.0,30.39,SSW,212,0.0,1.0,87,0.00,,,0.00,weatherlink.com 1.10,2013-03-29 05:42:00,
2013-03-29 01:57:00,27.7,24.0,30.39,SW,214,1.0,1.0,86,0.00,,,0.00,weatherlink.com 1.10,2013-03-29 05:57:00,
2013-03-29 02:12:00,27.6,24.0,30.39,SW,217,0.0,0.0,87,0.00,,,0.00,weatherlink.com 1.10,2013-03-29 06:12:00,
2013-03-29 02:27:00,27.3,24.0,30.39,SW,216,0.0,0.0,87,0.00,,,0.00,weatherlink.com 1.10,2013-03-29 06:27:00,
2013-03-29 02:42:00,27.2,24.0,30.40,SW,217,0.0,1.0,89,0.00,,,0.00,weatherlink.com 1.10,2013-03-29 06:42:00,
2013-03-29 02:57:00,26.9,24.0,30.40,SW,217,0.0,0.0,89,0.00,,,0.00,weatherlink.com 1.10,2013-03-29 06:57:00,
2013-03-29 03:12:00,26.3,24.0,30.40,SW,217,0.0,0.0,89,0.00,,,0.00,weatherlink.com 1.10,2013-03-29 07:12:00,
2013-03-29 03:27:00,25.8,23.0,30.40,SW,217,0.0,0.0,90,0.00,,,0.00,weatherlink.com 1.10,2013-03-29 07:27:00,
2013-03-29 03:42:00,26.7,25.0,30.39,NE,44,0.0,1.0,92,0.00,,,0.00,weatherlink.com 1.10,2013-03-29 07:42:00,
2013-03-29 03:57:00,26.3,24.0,30.39,ESE,102,0.0,1.0,91,0.00,,,0.00,weatherlink.com 1.10,2013-03-29 07:57:00,
2013-03-29 04:12:00,25.5,23.0,30.40,South,170,0.0,0.0,91,0.00,,,0.00,weatherlink.com 1.10,2013-03-29 08:12:00,
2013-03-29 04:27:00,26.3,25.0,30.40,NE,55,0.0,2.0,93,0.00,,,0.00,weatherlink.com 1.10,2013-03-29 08:27:00,
2013-03-29 04:42:00,26.3,25.0,30.40,NE,51,0.0,1.0,93,0.00,,,0.00,weatherlink.com 1.10,2013-03-29 08:42:00,
2013-03-29 04:57:00,26.4,25.0,30.40,NE,51,0.0,1.0,93,0.00,,,0.00,weatherlink.com 1.10,2013-03-29 08:57:00,
2013-03-29 05:12:00,25.3,23.0,30.40,SW,215,1.0,1.0,92,0.00,,,0.00,weatherlink.com 1.10,2013-03-29 09:12:00,
2013-03-29 05:27:00,24.6,23.0,30.40,SW,218,0.0,1.0,92,0.00,,,0.00,weatherlink.com 1.10,2013-03-29 09:27:00,
2013-03-29 05:42:00,24.6,23.0,30.40,SW,217,0.0,1.0,93,0.00,,,0.00,weatherlink.com 1.10,2013-03-29 09:42:00,
2013-03-29 05:57:00,24.2,23.0,30.41,SW,218,0.0,0.0,93,0.00,,,0.00,weatherlink.com 1.10,2013-03-29 09:57:00,
2013-03-29 06:12:00,25.3,24.0,30.41,NE,44,1.0,3.0,94,0.00,,,0.00,weatherlink.com 1.10,2013-03-29 10:12:00,
2013-03-29 06:27:00,25.5,24.0,30.41,North,11,0.0,3.0,93,0.00,,,0.00,weatherlink.com 1.10,2013-03-29 10:27:00,
2013-03-29 06:42:00,24.5,23.0,30.41,SW,219,0.0,1.0,92,0.00,,,0.00,weatherlink.com 1.10,2013-03-29 10:42:00,
2013-03-29 06:57:00,24.0,22.0,30.41,SW,221,0.0,1.0,93,0.00,,,0.00,weatherlink.com 1.10,2013-03-29 10:57:00,
2013-03-29 07:12:00,23.3,22.0,30.41,SW,221,0.0,0.0,93,0.00,,,0.00,weatherlink.com 1.10,2013-03-29 11:12:00,
2013-03-29 07:27:00,23.6,22.0,30.41,South,186,0.0,1.0,94,0.00,,,0.00,weatherlink.com 1.10,2013-03-29 11:27:00,
2013-03-29 07:42:00,23.5,22.0,30.41,SW,219,0.0,1.0,94,0.00,,,0.00,weatherlink.com 1.10,2013-03-29 11:42:00,
2013-03-29 07:57:00,23.9,23.0,30.41,NE,53,1.0,1.0,94,0.00,,,0.00,weatherlink.com 1.10,2013-03-29 11:57:00,
2013-03-29 08:12:00,25.1,24.0,30.42,NE,37,0.0,1.0,94,0.00,,,0.00,weatherlink.com 1.10,2013-03-29 12:12:00,
2013-03-29 08:27:00,25.6,24.0,30.42,NE,35,1.0,1.0,94,0.00,,,0.00,weatherlink.com 1.10,2013-03-29 12:27:00,
2013-03-29 08:42:00,27.6,26.0,30.42,NNE,33,0.0,1.0,94,0.00,,,0.00,weatherlink.com 1.10,2013-03-29 12:42:00,
2013-03-29 08:57:00,29.8,28.0,30.42,NNE,24,0.0,2.0,91,0.00,,,0.00,weatherlink.com 1.10,2013-03-29 12:57:00,
2013-03-29 09:12:00,32.7,28.0,30.42,East,99,0.0,1.0,83,0.00,,,0.00,weatherlink.com 1.10,2013-03-29 13:12:00,
2013-03-29 09:28:00,35.1,29.0,30.42,NW,314,0.0,0.0,79,0.00,,,0.00,weatherlink.com 1.10,2013-03-29 13:28:00,
2013-03-29 09:43:00,35.9,28.0,30.42,East,98,1.0,1.0,73,0.00,,,0.00,weatherlink.com 1.10,2013-03-29 13:43:00,
2013-03-29 09:58:00,37.2,29.0,30.41,North,354,0.0,2.0,72,0.00,,,0.00,weatherlink.com 1.10,2013-03-29 13:58:00,
2013-03-29 10:13:00,39.9,30.0,30.41,NNW,335,0.0,1.0,67,0.00,,,0.00,weatherlink.com 1.10,2013-03-29 14:13:00,
2013-03-29 10:28:00,41.0,29.0,30.41,NW,316,0.0,3.0,63,0.00,,,0.00,weatherlink.com 1.10,2013-03-29 14:28:00,
2013-03-29 10:43:00,42.4,29.0,30.40,NNE,21,1.0,4.0,60,0.00,,,0.00,weatherlink.com 1.10,2013-03-29 14:43:00,
2013-03-29 10:58:00,44.1,30.0,30.40,NNW,328,1.0,5.0,57,0.00,,,0.00,weatherlink.com 1.10,2013-03-29 14:58:00,
2013-03-29 11:13:00,45.6,27.0,30.39,NNE,30,1.0,5.0,49,0.00,,,0.00,weatherlink.com 1.10,2013-03-29 15:13:00,
2013-03-29 11:28:00,46.9,26.0,30.39,NNW,335,3.0,6.0,45,0.00,,,0.00,weatherlink.com 1.10,2013-03-29 15:28:00,
2013-03-29 11:43:00,48.6,27.0,30.39,NW,316,2.0,9.0,43,0.00,,,0.00,weatherlink.com 1.10,2013-03-29 15:43:00,
2013-03-29 11:58:00,49.6,24.0,30.38,NE,56,5.0,7.0,37,0.00,,,0.00,weatherlink.com 1.10,2013-03-29 15:58:00,
2013-03-29 12:13:00,50.8,22.0,30.38,North,354,5.0,7.0,33,0.00,,,0.00,weatherlink.com 1.10,2013-03-29 16:13:00,
2013-03-29 12:28:00,52.2,19.0,30.37,NNW,344,6.0,11.0,27,0.00,,,0.00,weatherlink.com 1.10,2013-03-29 16:28:00,
2013-03-29 12:43:00,52.7,19.0,30.36,North,8,3.0,14.0,27,0.00,,,0.00,weatherlink.com 1.10,2013-03-29 16:43:00,
2013-03-29 12:58:00,52.4,20.0,30.35,NNE,13,11.0,13.0,28,0.00,,,0.00,weatherlink.com 1.10,2013-03-29 16:58:00,
2013-03-29 13:13:00,53.2,22.0,30.35,NNE,17,6.0,12.0,29,0.00,,,0.00,weatherlink.com 1.10,2013-03-29 17:13:00,
2013-03-29 13:28:00,52.6,23.0,30.34,NW,323,4.0,17.0,31,0.00,,,0.00,weatherlink.com 1.10,2013-03-29 17:28:00,
2013-03-29 13:43:00,53.3,24.0,30.33,NNW,338,11.0,17.0,32,0.00,,,0.00,weatherlink.com 1.10,2013-03-29 17:43:00,
2013-03-29 13:59:00,53.1,24.0,30.33,NNW,345,8.0,14.0,32,0.00,,,0.00,weatherlink.com 1.10,2013-03-29 17:59:00,
2013-03-29 14:14:00,52.8,24.0,30.33,NNW,330,6.0,17.0,33,0.00,,,0.00,weatherlink.com 1.10,2013-03-29 18:14:00,
2013-03-29 14:29:00,52.3,25.0,30.33,North,3,14.0,17.0,35,0.00,,,0.00,weatherlink.com 1.10,2013-03-29 18:29:00,
2013-03-29 14:44:00,51.0,27.0,30.33,NNW,341,10.0,22.0,39,0.00,,,0.00,weatherlink.com 1.10,2013-03-29 18:44:00,
2013-03-29 14:59:00,50.2,29.0,30.33,NNE,20,13.0,23.0,44,0.00,,,0.00,weatherlink.com 1.10,2013-03-29 18:59:00,
2013-03-29 15:14:00,49.1,30.0,30.33,NNW,337,17.0,22.0,48,0.00,,,0.00,weatherlink.com 1.10,2013-03-29 19:14:00,
2013-03-29 15:29:00,48.2,32.0,30.34,North,355,11.0,24.0,53,0.00,,,0.00,weatherlink.com 1.10,2013-03-29 19:29:00,
2013-03-29 15:44:00,47.1,32.0,30.33,North,6,10.0,22.0,57,0.00,,,0.00,weatherlink.com 1.10,2013-03-29 19:44:00,
2013-03-29 15:59:00,46.2,33.0,30.33,NNW,346,14.0,18.0,61,0.00,,,0.00,weatherlink.com 1.10,2013-03-29 19:59:00,
2013-03-29 16:14:00,45.6,34.0,30.33,NNW,333,9.0,15.0,64,0.00,,,0.00,weatherlink.com 1.10,2013-03-29 20:14:00,
2013-03-29 16:29:00,45.3,34.0,30.34,NNE,22,12.0,18.0,66,0.00,,,0.00,weatherlink.com 1.10,2013-03-29 20:29:00,
2013-03-29 16:44:00,44.5,36.0,30.33,NNW,332,14.0,17.0,71,0.00,,,0.00,weatherlink.com 1.10,2013-03-29 20:44:00,
2013-03-29 16:59:00,43.7,37.0,30.33,North,11,8.0,14.0,76,0.00,,,0.00,weatherlink.com 1.10,2013-03-29 20:59:00,
2013-03-29 17:14:00,42.9,36.0,30.33,NNE,16,15.0,15.0,78,0.00,,,0.00,weatherlink.com 1.10,2013-03-29 21:14:00,
2013-03-29 17:29:00,42.7,37.0,30.33,North,351,7.0,14.0,80,0.00,,,0.00,weatherlink.com 1.10,2013-03-29 21:29:00,
2013-03-29 17:44:00,42.5,37.0,30.33,North,351,10.0,11.0,81,0.00,,,0.00,weatherlink.com 1.10,2013-03-29 21:44:00,
2013-03-29 17:59:00,42.2,37.0,30.33,North,349,8.0,10.0,82,0.00,,,0.00,weatherlink.com 1.10,2013-03-29 21:59:00,
2013-03-29 18:14:00,41.7,37.0,30.33,North,355,3.0,10.0,84,0.00,,,0.00,weatherlink.com 1.10,2013-03-29 22:14:00,
2013-03-29 18:29:00,41.5,38.0,30.33,NNW,342,2.0,11.0,86,0.01,,,0.01,weatherlink.com 1.10,2013-03-29 22:29:00,
2013-03-29 18:44:00,41.3,38.0,30.33,North,352,1.0,6.0,87,0.01,,,0.01,weatherlink.com 1.10,2013-03-29 22:44:00,
2013-03-29 18:59:00,40.8,38.0,30.33,NNW,342,3.0,7.0,88,0.01,,,0.01,weatherlink.com 1.10,2013-03-29 22:59:00,
2013-03-29 19:14:00,40.6,38.0,30.33,WNW,301,0.0,6.0,89,0.02,,,0.02,weatherlink.com 1.10,2013-03-29 23:14:00,
2013-03-29 19:29:00,40.3,38.0,30.33,NNW,331,2.0,6.0,90,0.01,,,0.02,weatherlink.com 1.10,2013-03-29 23:29:00,
2013-03-29 19:44:00,40.1,38.0,30.33,NW,326,5.0,6.0,90,0.01,,,0.02,weatherlink.com 1.10,2013-03-29 23:44:00,
2013-03-29 19:59:00,40.0,38.0,30.33,NNW,341,4.0,6.0,91,0.01,,,0.02,weatherlink.com 1.10,2013-03-29 23:59:00,
2013-03-29 20:14:00,40.1,38.0,30.33,NNW,333,2.0,4.0,93,0.01,,,0.03,weatherlink.com 1.10,2013-03-30 00:14:00,
2013-03-29 20:29:00,40.1,38.0,30.33,NW,319,2.0,4.0,93,0.02,,,0.04,weatherlink.com 1.10,2013-03-30 00:29:00,
2013-03-29 20:44:00,39.8,38.0,30.33,NNW,330,6.0,7.0,93,0.02,,,0.04,weatherlink.com 1.10,2013-03-30 00:44:00,
2013-03-29 20:59:00,39.6,38.0,30.33,NW,309,3.0,7.0,93,0.03,,,0.05,weatherlink.com 1.10,2013-03-30 00:59:00,
2013-03-29 21:14:00,39.5,37.0,30.34,NNW,335,4.0,8.0,92,0.02,,,0.05,weatherlink.com 1.10,2013-03-30 01:14:00,
2013-03-29 21:29:00,39.5,38.0,30.33,NNW,332,0.0,5.0,93,0.02,,,0.06,weatherlink.com 1.10,2013-03-30 01:29:00,
2013-03-29 21:44:00,39.2,37.0,30.33,NW,321,2.0,4.0,93,0.02,,,0.06,weatherlink.com 1.10,2013-03-30 01:44:00,
2013-03-29 21:59:00,39.2,37.0,30.33,WNW,295,3.0,4.0,93,0.01,,,0.06,weatherlink.com 1.10,2013-03-30 01:59:00,
2013-03-29 22:14:00,39.2,37.0,30.33,NW,321,0.0,3.0,93,0.01,,,0.06,weatherlink.com 1.10,2013-03-30 02:14:00,
2013-03-29 22:29:00,39.1,37.0,30.33,NW,320,1.0,6.0,93,0.00,,,0.06,weatherlink.com 1.10,2013-03-30 02:29:00,
2013-03-29 22:44:00,39.1,37.0,30.33,NNW,328,3.0,3.0,93,0.00,,,0.06,weatherlink.com 1.10,2013-03-30 02:44:00,
2013-03-29 22:59:00,38.9,37.0,30.33,WNW,295,1.0,2.0,93,0.00,,,0.06,weatherlink.com 1.10,2013-03-30 02:59:00,
2013-03-29 23:14:00,39.0,38.0,30.32,SW,229,0.0,2.0,94,0.00,,,0.06,weatherlink.com 1.10,2013-03-30 03:14:00,
2013-03-29 23:29:00,38.7,37.0,30.32,WNW,296,1.0,4.0,94,0.00,,,0.06,weatherlink.com 1.10,2013-03-30 03:29:00,
2013-03-29 23:44:00,38.6,37.0,30.32,WNW,293,0.0,2.0,94,0.00,,,0.06,weatherlink.com 1.10,2013-03-30 03:44:00,
2013-03-29 23:59:00,38.9,37.0,30.32,North,4,1.0,4.0,94,0.01,,,0.07,weatherlink.com 1.10,2013-03-30 03:59:00,